Wind_Speed
42 41 41 40 39 39 39 38 38 38 38 37 37 36 36 36 37 36 37 37 38 38 39 40 41 41 42 43 44 45 46 47 48 49 51 53 54 55 56 57 58 59 60
42 41 41 40 39 39 38 38 38 38 38 37 36 36 36 36 37 37 37 38 38 39 39 40 41 41 42 44 45 46 47 48 50 51 53 54 55 57 58 59 60 61 62
42 41 40 39 39 39 39 38 38 38 37 36 36 36 36 37 37 37 37 38 39 39 39 40 41 42 43 44 45 46 48 50 52 53 54 56 57 59 60 61 62 63 64
41 40 39 39 38 38 38 38 37 37 36 36 36 36 36 36 37 37 37 38 38 38 39 40 41 42 43 44 46 47 49 51 53 54 56 57 59 61 62 63 63 64 64
40 39 39 38 38 38 38 37 36 36 36 36 35 36 36 36 37 37 37 37 38 38 39 40 41 42 43 45 47 49 51 53 54 56 57 59 61 62 63 63 64 64 63
38 38 38 38 37 37 37 36 35 35 35 35 35 35 35 36 36 36 36 37 37 38 39 40 41 43 44 46 48 50 52 54 56 57 59 60 62 63 63 63 64 63 62
38 37 36 35 35 35 34 34 34 34 34 34 34 35 36 36 36 36 36 36 37 38 40 41 42 43 45 47 49 51 53 55 57 59 60 61 62 62 62 62 61 61 61
36 36 35 34 33 33 33 34 34 34 34 34 35 35 35 35 35 35 36 37 38 39 40 41 43 44 46 48 50 52 54 56 58 59 60 61 61 61 61 60 60 60 61
35 35 34 34 33 33 33 33 33 33 33 34 34 34 35 35 35 35 36 37 37 39 40 42 43 44 47 49 50 52 55 57 58 58 58 59 59 59 60 60 60 61 62
34 33 33 33 33 33 32 32 32 32 32 33 33 33 34 34 34 35 35 36 38 39 40 42 43 45 47 49 51 53 55 56 56 56 57 58 58 58 59 61 61 61 61
34 33 33 32 32 32 32 32 32 32 32 32 33 33 33 33 34 34 35 36 38 39 40 42 44 46 48 50 52 53 54 55 55 56 57 57 57 58 60 60 60 60 59
33 33 33 32 32 32 32 32 32 32 32 32 32 32 32 33 33 34 35 37 38 39 40 42 44 46 48 50 52 53 54 54 55 56 56 57 57 58 59 59 58 57 55
34 33 32 32 32 32 32 31 31 31 31 31 31 32 32 33 33 34 35 36 37 39 41 43 45 47 49 51 52 53 53 54 55 55 56 57 58 58 58 57 55 53 51
34 33 33 32 31 31 31 30 30 30 30 31 31 31 32 32 33 34 35 36 38 39 41 43 45 47 49 51 51 52 53 54 54 55 56 57 58 57 56 54 52 49 47
33 33 32 31 31 30 30 30 30 30 30 30 30 31 31 32 33 34 35 36 38 40 41 43 46 48 50 50 51 52 53 54 54 55 56 57 56 55 53 50 48 46 45
33 32 31 31 30 30 29 29 29 29 29 30 30 30 31 32 33 34 35 37 38 40 42 44 46 48 49 50 52 52 53 53 54 55 56 56 54 52 49 47 45 44 42
32 31 31 30 30 29 29 29 29 29 29 29 30 30 31 32 33 34 36 37 39 41 43 44 46 48 49 50 52 52 53 53 54 55 55 54 51 48 46 45 43 42 40
32 31 30 30 30 29 29 29 28 29 29 29 30 31 32 32 34 35 37 38 39 41 43 45 47 48 49 50 52 52 53 54 54 54 53 51 48 45 44 42 41 40 38
31 31 30 29 29 29 29 29 29 29 29 29 30 31 32 33 35 36 37 38 40 42 44 46 48 48 49 51 52 52 53 54 53 52 49 47 44 42 41 40 39 38 37
31 30 30 29 29 29 29 29 29 29 29 30 30 31 32 34 35 36 37 39 40 43 45 47 48 48 49 51 52 52 53 52 50 48 46 43 41 40 39 38 37 36 34
30 30 29 29 29 29 29 29 29 29 30 30 31 32 33 34 35 36 38 39 41 43 45 47 48 48 49 51 51 51 51 49 47 45 42 40 39 38 37 36 35 33 30
29 28 28 28 28 28 28 28 28 29 29 30 31 32 33 34 35 36 38 40 42 44 46 47 47 48 50 51 50 50 49 47 44 42 40 38 37 36 35 34 32 30 27
30 29 28 28 28 28 28 28 29 29 30 30 31 32 33 34 35 37 39 40 42 44 46 47 47 48 50 50 50 49 47 44 42 39 37 36 35 35 34 32 29 26 24
30 29 28 28 28 28 28 28 29 29 30 30 31 32 33 34 36 37 39 41 43 44 46 46 47 49 49 49 49 47 44 41 39 37 35 35 34 33 32 29 26 24 22
29 28 27 27 27 27 27 28 28 29 29 30 31 32 33 35 36 38 39 41 44 45 46 47 48 49 49 48 46 44 41 39 37 35 34 33 33 32 29 26 24 22 19
27 26 26 26 26 27 27 28 28 28 28 29 31 32 34 35 37 38 40 43 44 45 46 47 48 48 47 46 44 42 40 38 36 34 32 32 32 30 27 24 22 19 18
Wind_Direction
245 248 250 251 253 255 258 260 263 265 268 270 273 276 278 280 282 284 286 288 290 291 293 294 296 297 298 300 301 302 303 304 305 306 306 307 307 307 307 307 307 306 305
246 247 248 250 252 254 256 259 262 265 267 270 273 275 278 280 282 284 286 288 289 291 292 294 296 296 298 300 301 303 304 305 306 306 307 307 308 308 308 308 307 306 306
244 247 249 250 252 254 256 258 261 264 267 270 273 275 277 279 281 283 285 287 289 290 291 293 295 296 298 300 302 303 304 305 306 307 307 308 308 308 308 308 308 307 307
243 245 248 250 253 254 256 259 262 264 267 270 272 274 276 278 280 283 285 287 288 289 291 293 295 297 299 301 303 303 304 305 306 307 308 308 308 308 309 308 308 308 307
242 244 247 249 252 254 257 259 262 265 267 269 271 273 276 278 281 283 285 286 288 289 291 294 296 297 300 302 303 304 305 306 306 307 308 308 309 309 309 309 309 309 309
242 244 246 249 251 254 257 259 261 264 266 268 270 273 275 278 280 282 284 285 287 289 291 294 296 298 300 302 304 305 306 307 307 308 308 309 309 310 310 311 311 311 310
242 244 247 249 252 254 256 258 261 263 266 268 270 273 275 277 280 282 284 285 287 289 291 294 297 299 301 303 305 305 306 308 308 309 309 309 310 311 312 312 313 313 313
242 244 247 249 252 254 257 259 261 263 266 268 271 273 275 278 280 282 284 285 287 290 293 295 298 300 303 304 305 306 308 308 309 309 309 311 312 312 313 314 314 314 314
241 244 246 249 252 255 258 259 261 264 266 268 271 273 275 278 280 282 284 286 288 291 294 297 299 301 303 304 306 307 308 309 309 310 311 312 313 313 314 315 315 315 315
242 244 247 249 252 255 258 259 261 264 267 269 272 274 276 278 280 282 285 287 290 293 296 298 301 303 304 305 307 308 309 310 310 311 312 313 314 314 315 315 316 316 316
242 245 248 250 253 256 258 259 262 265 268 270 272 274 276 278 280 283 286 289 292 295 297 300 302 304 305 307 309 310 310 311 311 312 313 315 315 315 316 316 317 317 317
242 245 248 252 254 256 257 260 263 265 268 270 272 275 277 279 282 285 288 291 293 296 298 301 303 305 307 308 309 311 311 312 312 313 314 315 315 316 317 317 317 318 319
243 246 249 252 254 256 258 260 263 266 268 271 274 277 279 281 284 287 290 292 295 297 300 303 305 307 308 309 310 311 312 312 313 314 315 316 316 316 317 317 318 319 319
243 246 248 251 253 256 259 261 264 266 269 272 275 278 280 283 286 288 291 294 296 299 301 304 306 308 309 310 311 312 313 313 314 315 316 316 316 317 317 318 319 320 320
242 245 248 250 253 256 259 262 265 267 270 273 276 278 281 284 287 290 293 295 298 300 303 305 308 309 311 311 312 313 313 314 315 315 316 317 317 317 317 318 319 319 320
241 245 248 251 254 257 260 263 266 268 271 273 276 279 282 286 289 291 294 296 299 302 304 307 309 311 312 312 313 314 314 315 315 316 317 317 317 317 317 318 319 319 320
241 244 247 250 254 257 260 263 266 269 272 275 277 280 284 287 290 292 295 298 301 304 306 309 310 312 312 313 314 315 315 315 315 316 317 317 317 317 317 318 319 319 319
240 243 247 250 254 257 260 263 266 270 273 275 278 282 285 287 291 294 297 300 302 305 308 310 312 313 314 314 315 315 315 315 316 316 317 317 317 317 318 319 319 319 319
240 243 247 251 254 257 260 264 267 269 272 276 280 283 286 289 292 295 298 301 304 307 310 312 313 314 314 314 315 315 316 316 317 317 317 317 317 318 318 319 319 319 319
239 242 246 250 254 257 261 264 266 269 273 277 280 284 288 291 294 297 299 302 305 308 311 313 314 314 314 315 316 316 317 318 318 318 318 318 317 318 319 319 319 320 320
239 242 247 251 255 258 261 264 267 271 274 278 281 285 289 293 296 298 301 304 307 310 312 314 314 314 315 316 317 318 318 319 319 319 318 318 318 318 319 320 320 320 320
239 243 247 252 256 258 261 264 269 272 275 279 283 287 291 294 297 299 302 305 308 310 313 314 314 315 316 317 317 318 319 318 318 318 318 318 319 319 320 320 320 321 321
240 244 249 253 256 259 263 267 270 273 277 282 285 289 292 295 298 301 304 307 309 311 313 315 315 316 317 318 318 319 319 319 318 318 318 318 319 319 319 319 320 320 321
242 246 250 254 257 260 264 268 272 276 281 285 287 290 293 296 299 303 305 307 310 312 314 315 316 317 318 319 319 319 319 319 318 317 317 318 318 319 318 318 318 319 319
244 247 250 254 258 261 266 271 274 278 282 285 288 291 294 298 301 304 306 309 311 313 314 315 317 318 318 319 319 319 318 318 317 316 316 317 318 318 317 316 315 316 317
242 246 250 255 259 264 269 272 276 280 282 286 289 292 296 299 302 305 307 310 311 313 314 315 317 318 318 319 319 318 317 317 316 315 315 317 318 317 315 314 312 312 313
Height
5715 5718 5721 5723 5725 5726 5727 5729 5729 5729 5729 5729 5728 5727 5726 5725 5723 5722 5719 5717 5714 5712 5708 5705 5701 5697 5693 5689 5684 5679 5673 5668 5663 5657 5650 5643 5636 5629 5622 5614 5606 5598 5591
5706 5709 5711 5713 5715 5717 5719 5720 5720 5720 5720 5720 5720 5719 5718 5717 5715 5713 5711 5709 5706 5703 5700 5696 5693 5688 5684 5680 5675 5669 5664 5658 5652 5646 5639 5631 5624 5616 5608 5600 5592 5583 5575
5696 5699 5702 5704 5706 5708 5710 5711 5711 5712 5712 5711 5711 5710 5709 5708 5706 5704 5702 5700 5697 5694 5691 5687 5684 5679 5675 5670 5665 5659 5653 5647 5640 5634 5627 5619 5611 5603 5595 5587 5577 5568 5559
5686 5689 5693 5695 5698 5699 5701 5701 5702 5703 5703 5703 5702 5701 5700 5699 5698 5696 5694 5691 5688 5685 5682 5678 5675 5670 5666 5661 5655 5649 5643 5636 5629 5622 5615 5607 5599 5590 5581 5572 5563 5553 5544
5676 5680 5683 5686 5688 5690 5691 5693 5693 5694 5694 5694 5693 5693 5692 5690 5689 5687 5685 5682 5679 5677 5673 5669 5666 5661 5656 5651 5645 5639 5632 5626 5618 5611 5603 5594 5585 5576 5567 5557 5548 5538 5528
5667 5671 5674 5676 5679 5681 5683 5684 5685 5685 5685 5685 5685 5684 5683 5682 5680 5678 5676 5673 5671 5668 5664 5660 5656 5652 5647 5641 5635 5628 5622 5614 5606 5598 5590 5581 5572 5562 5552 5542 5533 5524 5515
5658 5662 5665 5668 5670 5672 5674 5675 5676 5676 5677 5676 5676 5675 5674 5673 5671 5669 5667 5665 5662 5659 5655 5651 5647 5642 5637 5631 5625 5618 5610 5602 5594 5586 5577 5567 5558 5549 5540 5530 5519 5509 5499
5649 5653 5656 5659 5661 5663 5665 5666 5667 5668 5668 5668 5667 5666 5665 5664 5662 5660 5658 5655 5653 5649 5646 5642 5637 5632 5627 5621 5614 5607 5599 5591 5582 5573 5564 5555 5545 5535 5526 5516 5506 5497 5487
5641 5644 5648 5650 5653 5655 5656 5657 5658 5659 5659 5659 5658 5657 5656 5655 5653 5651 5649 5646 5643 5640 5636 5632 5627 5622 5617 5611 5604 5596 5588 5579 5569 5560 5551 5542 5533 5523 5513 5504 5494 5484 5475
5633 5636 5639 5642 5644 5646 5648 5649 5649 5650 5650 5650 5649 5649 5647 5646 5644 5642 5640 5637 5634 5631 5627 5622 5618 5612 5606 5599 5592 5584 5576 5567 5558 5549 5540 5531 5521 5512 5502 5492 5481 5471 5461
5624 5628 5630 5633 5635 5637 5639 5640 5641 5641 5641 5641 5641 5640 5638 5637 5635 5633 5631 5628 5625 5621 5617 5612 5607 5601 5595 5588 5581 5573 5564 5555 5547 5538 5529 5520 5510 5501 5491 5480 5469 5459 5448
5616 5619 5622 5625 5627 5628 5630 5631 5632 5632 5633 5632 5632 5631 5629 5628 5626 5624 5621 5619 5615 5611 5607 5602 5597 5591 5584 5577 5569 5561 5553 5544 5535 5527 5518 5509 5499 5490 5480 5469 5459 5448 5438
5608 5611 5614 5616 5618 5620 5621 5623 5623 5624 5624 5623 5623 5622 5621 5619 5617 5615 5612 5609 5605 5601 5597 5592 5586 5580 5573 5566 5558 5550 5542 5533 5524 5516 5507 5498 5488 5479 5468 5458 5448 5439 5429
5600 5603 5606 5608 5610 5612 5613 5614 5615 5615 5615 5615 5614 5613 5612 5610 5608 5606 5603 5599 5596 5592 5587 5581 5576 5569 5562 5555 5547 5539 5531 5522 5513 5505 5496 5486 5477 5467 5458 5448 5439 5430 5421
5592 5595 5597 5600 5602 5603 5605 5606 5606 5607 5607 5606 5606 5604 5603 5601 5599 5597 5594 5590 5586 5582 5577 5571 5565 5559 5552 5544 5536 5528 5520 5511 5503 5494 5484 5475 5466 5456 5447 5438 5430 5421 5414
5584 5587 5589 5592 5594 5595 5596 5597 5598 5598 5598 5598 5597 5596 5594 5592 5590 5587 5584 5581 5576 5572 5567 5561 5555 5548 5541 5533 5526 5517 5509 5500 5491 5482 5473 5464 5455 5446 5437 5429 5421 5414 5406
5576 5579 5581 5584 5586 5587 5588 5589 5590 5590 5589 5589 5588 5587 5585 5583 5581 5578 5575 5571 5567 5562 5557 5551 5545 5538 5530 5523 5515 5506 5498 5489 5480 5472 5463 5454 5445 5436 5428 5421 5413 5406 5399
5568 5571 5573 5575 5577 5579 5580 5581 5581 5581 5581 5580 5579 5578 5576 5574 5572 5569 5565 5561 5557 5552 5547 5541 5534 5527 5519 5512 5504 5495 5487 5478 5469 5460 5452 5443 5435 5428 5420 5413 5405 5398 5392
5560 5563 5566 5568 5569 5571 5572 5572 5573 5573 5573 5572 5571 5569 5567 5565 5562 5559 5556 5552 5547 5542 5536 5530 5523 5516 5508 5501 5493 5484 5476 5467 5458 5450 5441 5434 5426 5419 5412 5405 5399 5392 5385
5552 5555 5558 5560 5561 5562 5563 5564 5564 5564 5564 5563 5562 5561 5559 5556 5553 5550 5546 5542 5537 5532 5526 5519 5512 5505 5497 5490 5482 5473 5465 5456 5447 5439 5432 5425 5418 5412 5405 5398 5392 5385 5379
5544 5547 5550 5552 5553 5554 5555 5556 5556 5556 5555 5554 5553 5551 5549 5547 5544 5540 5536 5532 5527 5521 5515 5509 5501 5494 5487 5479 5471 5462 5454 5446 5438 5431 5424 5417 5411 5405 5398 5392 5386 5380 5374
5537 5539 5542 5544 5545 5546 5547 5547 5547 5547 5546 5545 5544 5542 5540 5537 5534 5531 5527 5522 5517 5511 5505 5498 5491 5484 5476 5469 5460 5452 5444 5436 5429 5422 5416 5410 5404 5398 5392 5386 5380 5375 5370
5529 5531 5534 5535 5537 5538 5538 5539 5539 5538 5538 5537 5535 5533 5531 5528 5524 5521 5516 5512 5507 5501 5494 5488 5481 5473 5466 5458 5450 5442 5434 5427 5421 5414 5408 5403 5397 5391 5386 5381 5376 5371 5367
5521 5524 5526 5527 5529 5530 5530 5531 5530 5530 5529 5528 5526 5524 5521 5518 5515 5511 5506 5502 5496 5490 5484 5477 5470 5463 5456 5448 5440 5433 5425 5419 5413 5407 5401 5396 5391 5385 5380 5375 5371 5367 5363
5514 5516 5518 5519 5521 5521 5522 5522 5522 5521 5520 5519 5517 5514 5512 5509 5505 5501 5496 5491 5486 5480 5474 5467 5460 5453 5445 5438 5431 5423 5417 5411 5405 5399 5395 5390 5384 5379 5375 5371 5367 5363 5360
5506 5508 5510 5512 5513 5513 5514 5514 5513 5512 5511 5509 5507 5505 5502 5499 5495 5491 5486 5481 5475 5469 5463 5456 5450 5442 5435 5428 5421 5415 5409 5403 5397 5392 5388 5383 5379 5374 5370 5366 5363 5360 5357